Satellite-Ground Cal/Val Site Overpasses Predictions

Prediction of Satellite NPP Overpassing Cal/Val Site: Antarctic Dome C

Ground Cal/Val Site Location: Latitude: -75.10, Longitude: 123.35; Satellite-Ground Site NADIR distance within 100 km.

Table of predicted overpasses for the next 14.0 days since TLE Epoch: 1/26/2013
Interval Starting Time Ending Time Minimum Distance Time Minimum Distance (km)
1 01/26/2013 07:23:12 01/26/2013 07:23:39 01/26/2013 07:23:26 39.43
2 01/28/2013 15:05:42 01/28/2013 15:05:50 01/28/2013 15:05:46 95.95
3 01/29/2013 14:46:42 01/29/2013 14:47:11 01/29/2013 14:46:57 15.14
4 01/31/2013 07:29:35 01/31/2013 07:30:04 01/31/2013 07:29:50 2.56
5 02/03/2013 14:53:07 02/03/2013 14:53:35 02/03/2013 14:53:21 21.89
6 02/04/2013 14:34:26 02/04/2013 14:34:41 02/04/2013 14:34:34 84.91
7 02/05/2013 07:35:59 02/05/2013 07:36:27 02/05/2013 07:36:13 34.49
8 02/06/2013 07:17:16 02/06/2013 07:17:35 02/06/2013 07:17:25 75.42


NCC Satellite Cal/Val Overpasses Prediction Service
